W1MCO Weather Reports


time (UTC)temp
F
wind
direction
speed
knots
gust
knots
rain 1hr
in
rain 24hr
in
rain mn
in
humidity
%
barometer
mb
20260503053211 72 297 0.0 0.9 0.00 0.00 0.00 92 1014.0
20260503052710 72 330 0.0 1.7 0.00 0.00 0.00 92 1014.2
20260503052210 72 326 0.0 0.9 0.00 0.00 0.00 92 1014.2
20260503051710 72 233 0.0 0.9 0.00 0.00 0.00 92 1014.2
20260503051210 72 230 0.0 0.9 0.00 0.00 0.00 92 1014.3
20260503050711 72 276 0.0 0.9 0.00 0.00 0.00 92 1014.4
20260503050210 72 273 0.0 0.0 0.00 0.00 0.00 92 1014.3
20260503045711 72 242 0.0 0.9 0.00 0.00 0.00 93 1014.3
20260503045210 72 286 0.9 0.9 0.00 0.00 0.00 93 1014.4
20260503044711 72 291 0.0 0.9 0.00 0.00 0.00 93 1014.6
20260503044210 72 266 0.0 0.9 0.00 0.00 0.00 93 1014.5
20260503043710 72 280 0.9 1.7 0.00 0.00 0.00 94 1014.5
20260503043210 72 270 0.9 1.7 0.00 0.00 0.00 94 1014.7
20260503042710 72 244 0.0 1.7 0.00 0.00 0.00 95 1014.6
20260503042211 72 246 0.0 0.9 0.00 0.00 0.00 95 1014.4
20260503041710 72 301 0.0 0.0 0.00 0.00 0.00 95 1014.6
20260503041210 72 0 0.0 0.0 0.00 0.00 0.00 95 1014.7
20260503040710 72 0 0.0 0.0 0.00 0.00 0.00 95 1014.7
20260503040210 72 0 0.0 0.0 0.00 0.00 0.00 95 1014.6
20260503035710 72 292 0.0 0.0 0.00 0.00 0.33 95 1014.5
20260503035210 72 304 0.0 0.9 0.00 0.00 0.33 95 1014.3
20260503034710 72 0 0.0 0.0 0.00 0.00 0.33 95 1014.1
20260503034210 72 306 0.0 0.9 0.00 0.00 0.33 95 1014.1
20260503033710 72 350 0.0 0.9 0.00 0.00 0.33 95 1013.8
20260503033210 72 298 0.9 1.7 0.00 0.00 0.33 95 1013.9
20260503032710 72 0 0.0 0.0 0.00 0.00 0.33 94 1013.6
20260503032213 72 0 0.0 0.0 0.00 0.00 0.33 94 1013.6
20260503031711 72 12 0.9 1.7 0.00 0.00 0.33 94 1013.5
20260503031211 72 0 0.0 0.0 0.00 0.00 0.33 94 1013.6
20260503030710 72 273 0.9 1.7 0.00 0.00 0.33 94 1013.5
20260503030211 72 224 0.0 0.9 0.00 0.00 0.33 94 1013.3
20260503025710 72 248 0.0 1.7 0.00 0.00 0.33 94 1013.2
20260503025210 72 238 0.9 0.9 0.00 0.00 0.33 94 1013.1
20260503024710 72 206 1.7 2.6 0.00 0.00 0.33 94 1012.9
20260503024210 72 343 0.9 1.7 0.00 0.00 0.33 94 1012.6
20260503023710 72 4 0.0 0.0 0.00 0.00 0.33 94 1012.9
20260503023210 72 206 0.9 1.7 0.04 0.00 0.32 94 1012.7
20260503022710 72 156 0.9 1.7 0.00 0.00 0.32 94 1012.5
20260503022211 72 200 0.0 1.7 0.03 0.00 0.32 93 1012.8
20260503021710 72 17 0.0 0.9 0.05 0.00 0.31 93 1013.0
20260503021210 72 100 0.0 0.9 0.09 0.00 0.30 92 1013.2
20260503020710 72 216 0.0 0.9 0.05 0.00 0.30 92 1013.5
20260503020210 72 217 0.0 1.7 0.02 0.00 0.29 91 1013.5
20260503015711 72 255 0.0 1.7 0.00 0.00 0.29 91 1013.3
20260503015211 72 326 0.0 0.9 0.01 0.00 0.29 90 1013.2
20260503014711 72 233 0.9 1.7 0.00 0.00 0.29 90 1013.3
20260503014211 72 267 0.9 1.7 0.00 0.00 0.29 89 1013.3
20260503013710 72 216 1.7 2.6 0.00 0.00 0.29 88 1012.6
20260503013210 71 210 1.7 4.3 0.00 0.00 0.29 89 1012.5
20260503012710 72 191 2.6 5.2 0.00 0.00 0.29 89 1012.1
20260503012211 72 159 3.5 5.2 0.00 0.00 0.29 90 1011.7
20260503011710 72 167 2.6 5.2 0.00 0.00 0.29 91 1011.9
20260503011210 72 155 2.6 3.5 0.00 0.00 0.29 92 1012.2
20260503010711 72 219 0.9 1.7 0.00 0.00 0.29 92 1012.5
20260503010210 72 0 0.0 0.0 0.00 0.00 0.30 92 1012.2
20260503005710 72 246 0.9 1.7 0.00 0.00 0.30 93 1012.5
20260503005211 72 203 0.9 1.7 0.00 0.00 0.30 92 1011.9
20260503004710 72 170 0.9 3.5 0.00 0.00 0.29 92 1012.0
20260503004211 72 193 0.0 1.7 0.00 0.00 0.29 92 1012.3
20260503003710 71 206 0.9 2.6 0.00 0.00 0.29 92 1012.4
20260503003210 71 218 1.7 2.6 0.00 0.00 0.29 92 1012.3
20260503002710 71 156 2.6 3.5 0.00 0.00 0.29 92 1012.1
20260503002211 71 187 2.6 3.5 0.00 0.00 0.29 92 1012.5
20260503001710 71 206 1.7 3.5 0.00 0.00 0.29 92 1012.4
20260503001211 71 207 2.6 3.5 0.00 0.00 0.29 93 1012.2
20260503000710 71 32 0.0 0.9 0.01 0.00 0.29 93 1011.3
20260503000211 71 345 0.0 0.0 0.00 0.00 0.29 93 1011.4
20260502235711 71 0 0.0 0.0 0.00 0.00 0.29 92 1011.8
20260502235211 71 297 0.0 0.0 0.00 0.00 0.29 93 1011.9
20260502234710 71 223 1.7 1.7 0.00 0.00 0.29 92 1012.3
20260502234210 71 0 0.0 0.0 0.00 0.00 0.29 92 1012.2
20260502233710 71 286 0.0 0.9 0.00 0.00 0.29 92 1012.4
20260502233210 71 0 0.0 0.0 0.00 0.00 0.27 92 1012.3
20260502232710 72 0 0.0 0.0 0.00 0.00 0.27 91 1012.5
20260502232210 72 0 0.0 0.0 0.58 0.00 0.27 91 1012.5
20260502231710 72 300 0.9 1.7 0.11 0.00 0.19 91 1012.6
20260502231210 72 309 0.9 1.7 0.00 0.00 0.18 91 1012.7
20260502230711 72 301 0.9 1.7 0.00 0.00 0.18 91 1012.3
20260502230211 72 345 0.9 1.7 0.00 0.00 0.20 90 1012.2
20260502225711 72 331 0.9 1.7 0.00 0.00 0.20 91 1012.2
20260502225210 72 289 1.7 2.6 0.00 0.00 0.20 91 1012.3
20260502224710 72 312 0.9 1.7 0.00 0.00 0.20 91 1012.0
20260502224210 72 329 0.9 1.7 0.00 0.00 0.20 91 1012.1
20260502223712 72 346 0.9 1.7 0.00 0.00 0.20 91 1012.1
20260502223210 72 313 1.7 2.6 0.00 0.00 0.20 92 1012.3
20260502222711 72 295 0.9 1.7 0.00 0.00 0.20 92 1012.3
20260502222210 72 332 0.0 1.7 0.00 0.00 0.22 92 1012.0
20260502221710 73 348 1.7 1.7 0.00 0.00 0.22 91 1012.0
20260502221210 73 323 1.7 2.6 0.00 0.00 0.22 91 1011.8
20260502220710 74 281 3.5 5.2 0.00 0.00 0.26 90 1011.6
20260502220210 76 293 3.5 7.8 0.17 0.00 0.26 89 1011.7
20260502215710 79 293 4.3 7.0 3.76 0.00 0.12 84 1012.0
20260502215211 82 307 3.5 5.2 0.00 0.00 0.00 75 1011.6
20260502214711 82 203 2.6 5.2 0.00 0.00 0.00 74 1010.9
20260502214210 82 241 2.6 6.1 0.00 0.00 0.00 73 1011.0
20260502213710 83 264 2.6 5.2 0.00 0.00 0.00 73 1011.1
20260502213210 83 229 1.7 4.3 0.00 0.00 0.00 72 1011.1
20260502212710 84 246 2.6 5.2 0.00 0.00 0.00 71 1011.1
20260502212210 84 245 2.6 5.2 0.00 0.00 0.00 69 1011.2
20260502211710 84 271 4.3 9.6 0.00 0.00 0.00 69 1011.1
20260502211212 84 252 1.7 3.5 0.04 0.00 0.00 69 1010.8
20260502210710 84 253 2.6 5.2 0.00 0.00 0.00 69 1010.6
20260502210211 84 250 3.5 7.0 0.00 0.00 0.00 68 1010.5
20260502205710 85 223 2.6 5.2 0.00 0.00 0.00 67 1010.4
20260502205210 85 264 2.6 6.1 0.03 0.00 0.00 66 1010.5
20260502204710 85 257 3.5 6.1 0.00 0.00 0.00 64 1010.5
20260502204210 85 280 3.5 5.2 0.00 0.00 0.00 63 1010.4
20260502203710 86 283 2.6 3.5 0.00 0.00 0.00 62 1010.5
20260502203210 86 280 4.3 6.1 0.00 0.00 0.00 62 1010.5
20260502202710 86 266 1.7 5.2 0.00 0.00 0.00 62 1010.5
20260502202210 86 292 1.7 4.3 0.00 0.00 0.00 61 1010.6
20260502201710 87 256 1.7 3.5 0.00 0.00 0.00 60 1010.7
20260502201211 88 233 2.6 5.2 0.00 0.00 0.00 60 1010.7
20260502200711 88 258 2.6 5.2 0.00 0.00 0.00 60 1010.6
20260502200210 88 249 3.5 7.0 0.00 0.00 0.00 58 1010.5
20260502195710 88 214 6.1 8.7 0.00 0.00 0.00 62 1010.5
20260502195210 88 279 1.7 3.5 0.00 0.00 0.00 62 1010.6
20260502194711 88 231 3.5 7.0 0.00 0.00 0.00 62 1010.6
20260502194210 88 232 3.5 7.0 0.00 0.00 0.00 63 1010.6
20260502193710 88 206 4.3 8.7 0.00 0.00 0.00 62 1010.5
20260502193210 88 197 4.3 7.8 0.00 0.00 0.00 62 1010.6
20260502192711 88 261 5.2 10.4 0.00 0.00 0.00 62 1010.7
20260502192210 88 211 3.5 7.0 0.00 0.00 0.00 63 1010.7
20260502191710 88 198 6.1 7.8 0.00 0.00 0.00 63 1010.7
20260502191210 88 197 5.2 7.8 0.00 0.00 0.00 63 1010.9
20260502190711 88 232 3.5 5.2 0.00 0.00 0.00 64 1010.9
20260502190211 88 203 5.2 8.7 0.00 0.00 0.00 65 1011.2
20260502185711 88 219 3.5 6.1 0.00 0.00 0.00 64 1011.1
20260502185210 88 234 5.2 8.7 0.00 0.00 0.00 64 1011.1
20260502184710 87 199 6.1 11.3 0.00 0.00 0.00 65 1011.3
20260502184211 88 260 2.6 6.1 0.00 0.00 0.00 65 1011.4
20260502183711 88 204 5.2 10.4 0.00 0.00 0.00 64 1011.4
20260502183211 88 251 4.3 8.7 0.00 0.00 0.00 64 1011.6
20260502182710 87 235 1.7 6.1 0.00 0.00 0.00 66 1011.6
20260502182210 88 264 4.3 8.7 0.00 0.00 0.00 65 1011.6
20260502181711 88 261 4.3 9.6 0.00 0.00 0.00 64 1011.5
20260502181211 88 224 5.2 8.7 0.00 0.00 0.00 64 1011.5
20260502180711 88 211 6.1 10.4 0.00 0.00 0.00 63 1011.6
20260502180210 88 227 4.3 7.0 0.00 0.00 0.00 62 1011.8
20260502170211 88 224 4.3 7.8 0.00 0.00 0.00 66 1011.8
20260502164210 88 262 5.2 10.4 0.00 0.00 0.00 66 1011.9
20260502163711 88 254 3.5 7.0 0.00 0.00 0.00 66 1012.1
20260502163211 88 243 3.5 5.2 0.00 0.00 0.00 66 1012.1
20260502162711 88 209 4.3 7.0 0.00 0.00 0.00 67 1012.1
20260502162210 87 264 3.5 6.1 0.00 0.00 0.00 66 1012.0
20260502161711 87 257 3.5 6.1 0.00 0.00 0.00 66 1012.0
20260502161211 87 201 6.1 8.7 0.00 0.00 0.00 69 1011.9
20260502160711 87 222 5.2 7.8 0.00 0.00 0.00 69 1011.8
20260502160210 87 226 4.3 7.8 0.00 0.00 0.00 70 1011.9
20260502152210 85 216 6.1 9.6 0.00 0.00 0.00 73 1011.8
20260502151712 86 212 7.0 7.8 0.00 0.00 0.00 71 1011.7
20260502151210 86 247 4.3 8.7 0.00 0.00 0.00 72 1011.7
20260502150710 85 205 5.2 7.8 0.00 0.00 0.00 73 1011.7
20260502150210 84 197 7.8 11.3 0.00 0.00 0.00 74 1011.5
20260502130710 79 203 3.5 6.1 0.00 0.00 0.00 83 1011.1
20260502130210 78 198 2.6 4.3 0.00 0.00 0.00 84 1011.1
20260502123710 75 188 1.7 4.3 0.00 0.00 0.00 87 1011.0
20260502123211 74 183 1.7 3.5 0.00 0.00 0.00 88 1011.0
20260502122710 74 163 1.7 3.5 0.00 0.00 0.00 89 1011.0
20260502122210 73 182 1.7 2.6 0.00 0.00 0.00 90 1010.9
20260502121710 73 161 1.7 2.6 0.00 0.00 0.00 90 1010.9
20260502121210 72 155 1.7 2.6 0.00 0.00 0.00 90 1010.9
20260502120711 72 188 2.6 4.3 0.00 0.00 0.00 90 1010.9
20260502120210 72 186 1.7 4.3 0.00 0.00 0.00 91 1010.8
20260502115710 71 195 2.6 3.5 0.00 0.00 0.00 91 1010.8
20260502115211 71 190 2.6 4.3 0.00 0.00 0.00 91 1010.7
20260502114710 71 193 0.9 2.6 0.00 0.00 0.00 91 1010.8
20260502114212 71 173 2.6 3.5 0.00 0.00 0.00 92 1010.8
20260502113710 70 152 1.7 3.5 0.00 0.00 0.00 92 1010.7
20260502113212 70 170 1.7 3.5 0.00 0.00 0.00 92 1010.8
20260502112711 69 187 0.9 2.6 0.00 0.00 0.00 92 1010.8
20260502112210 69 178 0.9 2.6 0.00 0.00 0.00 92 1010.8
20260502111712 69 199 0.9 1.7 0.00 0.00 0.00 92 1010.8
20260502111210 69 165 0.0 1.7 0.00 0.00 0.00 92 1010.7
20260502110710 69 164 0.9 1.7 0.00 0.00 0.00 92 1010.8
20260502110210 69 193 1.7 1.7 0.00 0.00 0.00 92 1010.8
20260502105711 69 170 0.9 1.7 0.00 0.00 0.00 92 1010.7
20260502105210 69 182 0.9 1.7 0.00 0.00 0.00 92 1010.6
20260502104710 69 185 0.0 1.7 0.00 0.00 0.00 92 1010.6
20260502104210 68 166 0.9 1.7 0.00 0.00 0.00 92 1010.6
20260502103711 68 152 0.9 1.7 0.00 0.00 0.00 92 1010.7
20260502103211 68 171 0.0 0.9 0.00 0.00 0.00 93 1010.6
20260502102710 68 164 0.9 1.7 0.00 0.00 0.00 93 1010.7
20260502102210 68 158 0.9 1.7 0.00 0.00 0.00 93 1010.7
20260502101710 68 168 0.9 1.7 0.00 0.00 0.00 93 1010.8
20260502101211 67 181 0.9 1.7 0.00 0.00 0.00 94 1010.9
20260502100712 67 155 0.0 0.9 0.00 0.00 0.00 94 1010.9
20260502100210 67 157 0.9 2.6 0.00 0.00 0.00 95 1010.9
20260502091210 66 0 0.0 0.0 0.00 0.00 0.00 96 1011.2
20260502090710 66 0 0.0 0.0 0.00 0.00 0.00 96 1011.2
20260502090210 66 0 0.0 0.0 0.00 0.00 0.00 96 1011.1
20260502071210 67 0 0.0 0.0 0.00 0.00 0.00 95 1011.0
20260502070712 67 0 0.0 0.0 0.00 0.00 0.00 95 1010.9
20260502070210 66 114 0.0 1.7 0.00 0.00 0.00 95 1010.9
20260502065710 66 0 0.0 0.0 0.00 0.00 0.00 95 1011.0
20260502065210 66 0 0.0 0.0 0.00 0.00 0.00 95 1011.1
20260502064710 66 0 0.0 0.0 0.00 0.00 0.00 95 1011.2
20260502064210 66 0 0.0 0.0 0.00 0.00 0.00 95 1011.1
20260502063710 66 0 0.0 0.0 0.00 0.00 0.00 95 1011.2
20260502063211 66 0 0.0 0.0 0.00 0.00 0.00 95 1011.2
20260502062712 66 0 0.0 0.0 0.00 0.00 0.00 95 1011.3
20260502062210 66 0 0.0 0.0 0.00 0.00 0.00 95 1011.3
20260502061710 66 0 0.0 0.0 0.00 0.00 0.00 95 1011.2
20260502061210 66 0 0.0 0.0 0.00 0.00 0.00 95 1011.3
20260502060710 66 0 0.0 0.0 0.00 0.00 0.00 95 1011.3
20260502060210 66 0 0.0 0.0 0.00 0.00 0.00 94 1011.4
20260502055710 66 0 0.0 0.0 0.00 0.00 0.00 94 1011.5
20260502055210 66 341 0.0 0.0 0.00 0.00 0.00 94 1011.5
20260502054711 66 0 0.0 0.0 0.00 0.00 0.00 94 1011.4
20260502054210 66 34 0.0 0.0 0.00 0.00 0.00 94 1011.6
20260502053710 66 0 0.0 0.0 0.00 0.00 0.00 94 1011.7